EXPRESS AMU-3

Last updated on Wed Nov 20 2024 00:02:43 GMT+0000 (Coordinated Universal Time)

1 50002U 21123B 24323.55254531 -.00000319 00000+0 00000+0 0 9992 2 50002 0.0143 310.7286 0000283 187.7640 221.5303 1.00269897 1267
UTC large
Height (km)
Speed (km/s)
/
Latitude / Longitude
Inclination (degrees)
Orbital Period (minutes)
Azimuth
Elevation
Range (km)
Doppler Factor

Next 0 passes for location: London (51.5072 / 0.1276)

Sorry there are no passes over London.